Regional Weather Roundup
Issued by NWS State College, PA

Home | Current Version | Previous Version | Text Only | Print | Product List | Glossary On
Versions: 1 2 3 4 5 6 7 8 9 10 11 12 13 14 15 16 17 18 19 20 21 22 23 24 25 26 27 28 29 30 31 32 33 34 35 36 37 38 39 40 41 42 43 44 45 46 47 48 49 50
000
ASUS41 KCTP 191903
RWRCTP

REGIONAL WEATHER ROUNDUP
NATIONAL WEATHER SERVICE STATE COLLEGE PA
200 PM EST SUN FEB 19 2017

Note: "fair" indicates few or no clouds below 12,000 feet with no
significant weather and/or obstructions to visibility.

* = STATION THAT DOES NOT REPORT PRECIPITATION /E.G. RAIN...SNOW...ETC/
    THUNDER OR FOG.

PAZ002>004-007>009-013>016-020>023-029>032-192000-
WESTERN PENNSYLVANIA

CITY           SKY/WX    TMP DP  RH WIND       PRES   REMARKS
ERIE           SUNNY     49  36  61 W13G22    29.97S
MEADVILLE      SUNNY     57  35  43 W12       29.96S
FRANKLIN*      SUNNY     59  36  41 W14G20    29.97S
NEW CASTLE     FAIR      61  36  39 NW13G22   29.99R
BEAVER COUNTY  NOT AVBL
BUTLER*        SUNNY     63  37  39 W13G23    29.98F
PITTSBURGH INT SUNNY     62  39  42 W14       29.98S
PITTSBURGH     SUNNY     61  38  42 NW9       29.98S
INDIANA*       SUNNY     59  43  55 W14       29.98S
LATROBE        MOSUNNY   57  45  62 SW20      29.99F
WASHINGTON CO* SUNNY     61  43  51 W10       30.02S
$$

PAZ004>006-010>012-017>019-024>028-033>037-041-042-045-046-049>053-192000-
CENTRAL PENNSYLVANIA

CITY           SKY/WX    TMP DP  RH WIND       PRES   REMARKS
BRADFORD       SUNNY     57  35  43 W13       29.91S
DUBOIS         SUNNY     60  34  37 W14G22    29.93R
CLEARFIELD       N/A    N/A N/A N/A MISG      29.92R
JOHNSTOWN      SUNNY     55  40  56 W16G29    29.94S
ALTOONA        SUNNY     62  39  42 W15G21    29.92S
STATE COLLEGE  SUNNY     63  32  31 W17G25    29.89S
WILLIAMSPORT   SUNNY     66  38  35 W12       29.84F
SELINSGROVE    SUNNY     64  41  42 NW8       29.87S
FT INDIANTOWN  SUNNY     65  37  35 W15G24    29.86S
CAPITAL CITY   SUNNY     69  36  29 W12G24    29.87S
HARRISBURG     MOSUNNY   67  38  34 W14       29.86S
YORK           SUNNY     68  40  35 NW14      29.87F
$$

PAZ038>040-043-044-047-048-054-055-060>062-067>071-192000-
EASTERN PENNSYLVANIA

CITY           SKY/WX    TMP DP  RH WIND       PRES   REMARKS
SCRANTON       SUNNY     61  39  44 SW7       29.82F
MOUNT POCONO   SUNNY     53  36  52 W13       29.82S
ALLENTOWN      SUNNY     66  35  31 W10       29.83S
QUAKERTOWN*    CLEAR     66  32  28 N8G18     29.84S
READING        SUNNY     67  39  35 W10       29.84F
LANCASTER      SUNNY     67  41  38 W10G20    29.85S
COATESVILLE    CLEAR     66  39  37 NW14      29.87S
POTTSTOWN      SUNNY     66  33  29 NW15      29.85F
BLUE BELL      SUNNY     64  39  39 W6        29.83S
DOYLESTOWN     SUNNY     70  36  28 VRB7      29.82F
WILLOW GROVE   NOT AVBL
NORTH PHILA    SUNNY     69  36  29 NW8G18    29.84F
PHILADELPHIA   MOSUNNY   68  39  34 W12G24    29.84S
$$




USA.gov is the U.S. government's official web portal to all federal, state and local government web resources and services.